K6DJR Weather Reports


time (UTC)temp
C
wind
direction
speed
KPH
gust
KPH
rain 1hr
cm
rain 24hr
cm
rain mn
cm
humidity
%
barometer
mb
20260507164506 12 360 8.0 20.9 0.00 1.65 0.00 46 1007.6
20260507163013 12 360 1.6 14.5 0.00 1.65 0.00 48 1007.6
20260507161515 12 360 6.4 20.9 0.00 1.65 0.00 45 1007.8
20260507160025 11 360 1.6 20.9 0.00 1.65 0.00 53 1008.1
20260507154524 11 360 3.2 14.5 0.00 1.65 0.00 49 1008.0
20260507153008 12 360 4.8 24.1 0.00 1.65 0.00 50 1008.1
20260507151517 11 360 3.2 17.7 0.00 1.65 0.00 55 1008.0
20260507150018 11 360 4.8 16.1 0.00 1.65 0.00 54 1008.3
20260507144523 11 360 4.8 12.9 0.00 1.65 0.00 54 1008.4
20260507143025 10 98 3.2 11.3 0.00 1.65 0.00 63 1008.4
20260507141515 10 140 1.6 9.7 0.00 1.65 0.00 67 1008.3
20260507140019 8 229 1.6 9.7 0.00 1.65 0.00 76 1008.3
20260507134520 9 87 3.2 19.3 0.00 1.65 0.00 74 1008.4
20260507133024 8 360 1.6 17.7 0.00 1.65 0.00 75 1008.5
20260507131528 8 321 3.2 6.4 0.00 1.65 0.00 78 1008.6
20260507130011 8 294 0.0 16.1 0.00 1.65 0.00 83 1008.7
20260507124520 7 60 1.6 8.0 0.00 1.65 0.00 84 1008.8
20260507123025 7 360 1.6 8.0 0.00 1.65 0.00 84 1008.6
20260507121524 7 360 0.0 6.4 0.00 1.65 0.00 87 1008.4
20260507120029 6 360 1.6 6.4 0.00 1.65 0.00 89 1008.5
20260507114517 6 360 0.0 4.8 0.00 1.65 0.00 92 1008.6
20260507113026 5 360 1.6 6.4 0.00 1.65 0.00 93 1008.5
20260507111526 5 57 1.6 6.4 0.00 1.65 0.00 96 1008.5
20260507110026 4 19 0.0 4.8 0.00 1.65 0.00 97 1008.5
20260507104527 3 50 0.0 1.6 0.00 1.65 0.00 97 1008.6
20260507103017 3 50 0.0 3.2 0.00 1.65 0.00 96 1008.2
20260507101520 3 106 1.6 4.8 0.00 1.65 0.00 97 1008.2
20260507100026 3 51 1.6 3.2 0.00 1.65 0.00 96 1008.3
20260507094515 3 51 1.6 3.2 0.00 1.65 0.00 95 1008.3
20260507093016 3 51 0.0 4.8 0.00 1.65 0.00 95 1008.6
20260507091515 4 137 0.0 4.8 0.00 1.65 0.00 96 1008.5
20260507090006 4 55 1.6 3.2 0.00 1.65 0.00 95 1008.3
20260507084532 5 178 0.0 4.8 0.00 1.65 0.00 95 1008.5
20260507083016 5 154 0.0 3.2 0.00 1.65 0.00 95 1008.0
20260507081515 5 154 0.0 3.2 0.00 1.65 0.00 95 1008.0
20260507080017 5 154 0.0 3.2 0.00 1.65 0.00 96 1008.1
20260507074507 5 149 1.6 4.8 0.00 1.65 0.00 95 1008.1
20260507073012 5 149 0.0 3.2 0.00 1.65 0.00 95 1007.7
20260507071521 6 149 0.0 8.0 0.00 1.65 0.00 95 1007.1
20260507070016 6 233 1.6 4.8 0.00 1.65 0.00 95 1007.1
20260507064519 6 173 1.6 8.0 0.00 1.65 0.00 95 1007.6
20260507063010 6 171 3.2 8.0 0.00 1.65 0.00 94 1007.5
20260507061512 6 217 0.0 11.3 0.00 1.65 0.00 94 1007.2
20260507060021 6 250 1.6 8.0 0.00 1.65 0.00 95 1007.3
20260507054520 6 138 1.6 8.0 0.00 1.65 0.00 95 1007.4
20260507053022 6 205 1.6 11.3 0.00 1.65 0.00 95 1007.3
20260507051512 6 201 0.0 6.4 0.00 1.65 0.00 95 1007.6
20260507050034 6 208 0.0 8.0 0.00 1.65 0.00 95 1007.6
20260507044518 6 216 0.0 6.4 0.00 1.65 0.00 95 1007.5
20260507043022 6 173 1.6 9.7 0.00 1.65 0.00 96 1007.2
20260507041519 6 191 1.6 6.4 0.03 1.65 0.00 96 1007.2
20260507040013 6 188 1.6 8.0 0.03 1.65 0.00 96 1007.1
20260507034515 7 94 0.0 14.5 0.05 1.65 1.65 95 1007.2
20260507033025 7 179 1.6 17.7 0.05 1.65 1.65 95 1007.3
20260507031523 7 192 3.2 12.9 0.03 1.63 1.63 94 1007.3
20260507030021 7 23 4.8 14.5 0.03 1.63 1.63 93 1007.2
20260507024516 7 213 4.8 16.1 0.03 1.60 1.60 94 1007.4
20260507023021 8 252 4.8 16.1 0.05 1.60 1.60 94 1007.3
20260507021529 8 190 3.2 24.1 0.08 1.60 1.60 94 1007.4
20260507020022 8 37 4.8 11.3 0.08 1.60 1.60 95 1007.0
20260507014523 8 213 1.6 14.5 0.05 1.57 1.57 95 1007.0
20260507013021 8 155 3.2 16.1 0.03 1.55 1.55 94 1006.9
20260507011523 9 352 1.6 14.5 0.03 1.52 1.52 94 1006.8
20260507010032 10 13 3.2 11.3 0.03 1.52 1.52 94 1006.5
20260507004527 10 188 1.6 12.9 0.03 1.52 1.52 94 1006.4
20260507003026 10 202 1.6 9.7 0.13 1.52 1.52 94 1006.1
20260507001521 11 211 1.6 14.5 0.13 1.47 1.47 94 1005.9
20260507000006 11 219 3.2 9.7 0.15 1.47 1.47 93 1005.7
20260506234508 12 227 1.6 14.5 0.15 1.47 1.47 93 1005.6
20260506233013 14 9 6.4 12.9 0.23 1.40 1.40 96 1005.2
20260506231520 14 238 0.0 6.4 0.28 1.37 1.37 96 1005.0
20260506230022 14 313 0.0 3.2 0.28 1.32 1.32 96 1005.1
20260506224507 14 313 1.6 6.4 0.28 1.32 1.32 96 1005.0
20260506223008 14 18 1.6 4.8 0.10 1.17 1.17 97 1005.0
20260506221512 15 150 0.0 3.2 0.05 1.09 1.09 97 1005.0
20260506220018 15 150 0.0 3.2 0.08 1.12 1.07 97 1005.1
20260506214523 15 124 0.0 3.2 0.20 1.14 1.07 97 1005.1
20260506213004 15 247 1.6 4.8 0.36 1.22 1.07 97 1005.1
20260506211508 15 183 1.6 8.0 0.41 1.22 1.04 96 1005.3
20260506210030 14 174 0.0 3.2 0.38 1.17 0.99 96 1005.2
20260506204523 14 174 0.0 1.6 0.28 1.04 0.86 96 1005.4
20260506203003 14 171 0.0 4.8 0.20 0.89 0.71 96 1005.5
20260506201510 15 185 0.0 4.8 0.18 0.81 0.64 96 1005.6
20260506200012 15 84 1.6 4.8 0.20 0.79 0.61 96 1005.8
20260506194518 15 183 1.6 3.2 0.20 0.76 0.58 96 1006.1
20260506193036 15 249 0.0 4.8 0.15 0.69 0.51 96 1006.2
20260506191507 15 240 0.0 4.8 0.13 0.64 0.46 95 1006.2
20260506190010 15 216 1.6 9.7 0.13 0.58 0.41 95 1006.5
20260506184516 15 161 1.6 12.9 0.15 0.56 0.38 95 1006.5
20260506183021 15 175 1.6 8.0 0.20 0.53 0.36 94 1006.8
20260506181536 15 194 1.6 6.4 0.23 0.51 0.33 94 1007.1
20260506180010 15 188 1.6 4.8 0.23 0.46 0.28 94 1007.3
20260506174510 15 128 1.6 4.8 0.23 0.41 0.23 93 1007.3
20260506173024 15 11 0.0 3.2 0.15 0.33 0.15 91 1007.4
20260506171528 16 11 0.0 3.2 0.10 0.28 0.10 89 1007.4
20260506170026 16 146 0.0 3.2 0.05 0.23 0.05 89 1007.6